Tracking 19800 objects as of 24-Jul-2019
HD Live streaming from Space Station
objects crossing your sky now

COSMOS 1275 DEB


COSMOS 1275 DEB is no longer on orbit


NORAD ID: 13457
Int'l Code: 1981-053FD
Perigee: N/A
Apogee: N/A
Inclination: N/A
Period: N/A
Semi major axis: N/A
RCS: N/A
Launch date: June 4, 1981
Source: Commonwealth of Independent States (former USSR) (CIS)
Launch site: PLESETSK MISSILE AND SPACE COMPLEX (PKMTR)
Decay date: 2012-03-22

Note: This is SATELLITE DEBRIS
aabbcc
Your satellite tracking list
Your tracking list is empty




NASA's NSSDC Master Catalog

Two Line Element Set (TLE):
1 13457U 81053FD  12082.69660714  .35699499 -10349-5  62228-2 0  9998
2 13457 082.8306 074.9806 0024419 052.8651 319.6249 16.31904376579780
Source of the keplerian elements: AFSPC